Regional Weather Roundup
Issued by NWS Sioux Falls, SD

Home | Current Version | Previous Version | Graphics & Text | Print | Product List | Glossary Off
Versions: 1 2 3 4 5 6 7 8 9 10 11 12 13 14 15 16 17 18 19 20 21 22 23 24 25 26 27 28 29 30 31 32 33 34 35 36 37 38 39 40 41 42 43 44 45 46 47 48 49 50

000
ASUS43 KFSD 051410
RWRFSD

WEATHER ROUNDUP FOR SE SOUTH DAKOTA/SW MINNESOTA/NW IOWA
NATIONAL WEATHER SERVICE SIOUX FALLS SD
800 AM CST THU MAR 05 2015

NOTE: "FAIR" INDICATES FEW OR NO CLOUDS BELOW 12,000 FEET WITH NO
SIGNIFICANT WEATHER AND OR OBSTRUCTIONS TO VISIBILITY.


SDZ038>040-050-052>070-051500-
SOUTHEAST SOUTH DAKOTA

CITY           SKY/WX    TMP DP  RH WIND       PRES   REMARKS
CHAMBERLAIN    MOCLDY    -5 -10  80 SE5       30.34S WCI -16
HURON          PTCLDY    -5 -11  75 S12       30.40F WCI -23
MADISON        FAIR      -9 N/A N/A S7        30.40R WCI -24
MITCHELL       PTCLDY    -2  -8  76 SE10      30.43F WCI -19
SIOUX FALLS    MOSUNNY   -4  -8  83 CALM      30.45S
WINNER         FAIR       9  -2  61 S12       30.29F WCI  -6
YANKTON        FAIR      -2  -4  92 CALM      30.49R
$$

MNZ071-072-080-081-089-090-097-098-051500-
SOUTHWEST MINNESOTA

CITY           SKY/WX    TMP DP  RH WIND       PRES   REMARKS
FAIRMONT       SUNNY     -2  -9  71 W5        30.47R WCI -12
JACKSON        MOSUNNY   -6 -13  71 W3        30.46R
LUVERNE        PTSUNNY   -6  -9  84 CALM      30.47R
MARSHALL       MOSUNNY   -4 -13  65 SW7       30.46R WCI -18
MONTEVIDEO     FAIR      -6  -9  84 W6        30.48R WCI -18
PIPESTONE      MOSUNNY  -11 -17  77 CALM      30.40S
REDWOOD FALLS  MOSUNNY   -8 -14  74 SW6       30.49R WCI -21
TRACY          MOSUNNY   -6 -13  71 SW8       30.45S WCI -21
WINDOM         MOSUNNY   -8 -13  77 CALM      30.46R
WORTHINGTON    MOSUNNY   -8  -9  92 CALM      30.46R
$$

IAZ001>003-012>014-020>022-031-032-NEZ013-014-SDZ071-051500-
NORTHWEST IOWA

CITY           SKY/WX    TMP DP  RH WIND       PRES   REMARKS
CHEROKEE       MOSUNNY   -7 -11  84 CALM      30.52R
DENISON        SUNNY     -2  -8  78 E3        30.51R
ESTHERVILLE    SUNNY     -4 -10  75 W7        30.48R WCI -18
LE MARS        MOSUNNY   -2  -8  78 CALM      30.52R
ORANGE CITY    MOSUNNY   -2  -8  78 CALM      30.47R
SHELDON        MOSUNNY   -4  -9  77 CALM      30.47R
SIOUX CITY     MOSUNNY    1  -5  75 CALM      30.53R
SPENCER        SUNNY     -2 -10  69 CALM      30.49R
STORM LAKE     MOSUNNY   -4  -9  77 W5        30.49R WCI -15
$$

ABBREVIATIONS USED IN REMARKS
   TC - TEMPERATURE IN CELSIUS
  WCI - WIND CHILL INDEX
   HX - HEAT INDEX
  VSB - VISIBILITY



USA.gov is the U.S. government's official web portal to all federal, state and local government web resources and services.